www.pogodaiklimat.ru

Погода и климат >> Архив погоды >> Казахстан >> Толе Би


ПОГОДА в Толе Би

  • Прогноз погоды в Толе Би
  • Монитор погоды в Толе Би

АРХИВ ПОГОДЫ в Толе Би

Время (UTC), дата Ветер
(напр.,м/с)
 
Видим.   Явления Облачность Т
(С)
Тd
(С)
f
(%)
Тe
(С)
Тes
(С)
Комфортность P
(гПа)
Po
(гПа)
Тmin
(С)
Tmax
(С)
R
(мм)
R24
(мм)
S
(см)
03 11.09 штиль 0 20 км ясно +12.4 +8.4 77 +12 +16 1026.0 972.0
06 11.09 С 1 20 км ясно +20.2 +6.2 40 +22 +36 комфорт 1023.9 971.4 +4.3
09 11.09 С 2 20 км 3/3 1000 м
[Cu hum]
+22.6 +2.3 26 +22 +29 комфорт 1023.0 970.9
12 11.09 штиль 0 20 км 3/3 1000 м
[Cu hum]
+23.4 +2.9 26 +23 +24 комфорт 1023.0 971.0
15 11.09 С 3 10 км ясно +13.0 +4.8 57 +12 +12 1026.6 972.6 +23.4
18 11.09 СВ 2 10 км ясно +13.3 +4.6 56 +13 +13 1025.6 971.7 +23.4
21 11.09 С 3 10 км ясно +14.5 +5.1 53 +14 +14 1024.3 970.7
00 12.09 СВ 1 10 км ясно +10.9 +5.3 68 +11 +11 1024.9 970.7
03 12.09 штиль 0 20 км ясно +13.8 +7.0 64 +14 +18 1024.5 970.8
06 12.09 С 3 20 км ясно +23.1 +3.6 28 +23 +33 комфорт 1021.0 969.1 +5.8
09 12.09 СВ 3 20 км ясно +25.0 +2.5 23 +24 +32 комфорт 1019.3 967.8
12 12.09 С 3 20 км ясно +23.5 +2.3 25 +23 +24 комфорт 1018.6 966.9
15 12.09 С 1 10 км ясно +16.5 +1.1 35 +17 +17 1020.3 967.2 +25.4
18 12.09 С 1 10 км ясно +9.6 +1.1 55 +9 +9 1020.9 966.5 +25.4
21 12.09 С 1 10 км ясно +5.5 +2.0 78 +4 +4 1020.7 965.6
00 13.09 штиль 0 10 км ясно +5.3 +3.1 86 +4 +4 1021.2 966.1
03 13.09 штиль 0 20 км ясно +13.1 +5.0 58 +13 +17 1020.3 966.7
06 13.09 С 1 20 км ясно +24.6 +5.0 28 +24 +38 комфорт 1018.4 966.9 +4.0
09 13.09 СВ 1 20 км ясно +26.0 +3.4 23 +25 +36 комфорт 1016.9 965.7
12 13.09 С 1 20 км 3/0
[Ac lent]
+25.8 +0.6 19 +24 +25 комфорт 1016.0 964.8
15 13.09 С 2 10 км 3/0
[Ac cuf]
+19.7 -1.2 24 +20 +20 1018.3 965.9 +26.9
18 13.09 С 2 10 км 5/5 1000 м
[Sc]
+14.9 -0.2 36 +15 +15 1018.2 965.0 +26.9
21 13.09 штиль 0 10 км 5/5 1000 м
[Sc]
+8.6 +1.3 60 +8 +8 1018.1 963.7
00 14.09 штиль 0 10 км 8/8 1000 м
[Sc]
+6.2 +3.3 82 +5 +5 1018.8 964.0
03 14.09 штиль 0 20 км 6/6 1000 м
[Sc]
+14.9 +1.7 41 +15 +16 1017.8 964.6
06 14.09 штиль 0 20 км 8/8 1000 м
[Cu med, cong]
+21.7 +4.0 31 +22 +25 комфорт 1015.9 964.0 +5.9
09 14.09 СВ 1 20 км 6/6 1000 м
[Cu med, cong]
+27.2 -0.9 16 +25 +29 комфорт 1013.4 962.5
12 14.09 штиль 0 20 км 8/8 1000 м
[Sc]
+26.1 +1.5 20 +25 +25 комфорт 1013.6 962.6
15 14.09 штиль 0 10 км 10/10 600 м
[Cb cap]
+20.0 +3.6 34 +20 +20 1015.0 962.9 +28.5
18 14.09 штиль 0 10 км 10/10 600 м
[Cb cap]
+14.7 +8.4 66 +15 +15 1015.4 962.4 +28.5
21 14.09 Ю 1 10 км 10/10 600 м
[Cb cap]
+17.0 +5.9 48 +18 +18 1014.4 961.8
00 15.09 ЮВ 2 10 км 10/10 600 м
[Cb cap]
+17.5 +6.7 49 +18 +18 1015.8 963.2
03 15.09 В 2 20 км 8/8 600 м
[Cb cap]
+18.8 +9.5 55 +20 +21 1016.3 964.0
06 15.09 В 2 20 км 10/10 600 м
[Cb cap]
+22.6 +10.2 45 +24 +24 комфорт 1015.0 963.4 +13.8
09 15.09 штиль 0 20 км 10/10 600 м
[Cb cap]
+23.2 +8.9 40 +25 +25 комфорт 1015.2 963.7
12 15.09 З 4 20 км 10/10 600 м
[Cb cap]
+20.4 +6.8 41 +21 +21 комфорт 1016.3 964.2
15 15.09 ЮЗ 4 10 км слаб. ливневой дождь 10/10 300 м
[Cb cap]
+14.2 +12.2 88 +13 +13 1021.1 967.7 +25.4
18 15.09 ЮВ 2 10 км {ливн. осадки} 10/10 600 м
[Cb cap]
+13.6 +12.3 92 +13 +13 1021.8 968.3 +25.4 2
21 15.09 ЮВ 2 10 км 6/6 600 м
[Sc]
+12.6 +11.7 94 +12 +12 1020.4 966.8
00 16.09 ЮВ 2 10 км 6/6 600 м
[Sc]
+12.3 +9.8 85 +11 +11 1020.2 966.5
03 16.09 ЮВ 2 20 км 3/3 1000 м
[Sc]
+15.9 +10.3 69 +16 +18 1019.9 966.8
06 16.09 Ю 2 20 км 3/3 1000 м
[Sc]
+22.1 +9.0 43 +23 +31 комфорт 1018.2 966.4 +11.9 0.5
09 16.09 З 3 20 км 6/6 1000 м
[Cb cap]
+25.1 +1.9 22 +24 +27 комфорт 1016.1 964.8
12 16.09 З 2 20 км 10/10 600 м
[Cb cap]
+22.5 +2.1 26 +22 +22 комфорт 1016.6 964.8
15 16.09 штиль 0 10 км 10/10 600 м
[Cb cap]
+16.5 +7.6 56 +16 +16 1019.0 966.1 +25.5
18 16.09 Ю 1 10 км 10/10 600 м
[Cb cap]
+17.1 +4.5 43 +18 +18 1020.5 967.6 +25.5
21 16.09 ЮВ 1 10 км 10/10 600 м
[Cb cap]
+16.9 +5.3 46 +18 +18 1020.0 967.1
00 17.09 ЮВ 1 10 км 8/8 1000 м
[Sc]
+13.9 +7.0 63 +14 +14 1022.1 968.6
03 17.09 ЮВ 2 20 км ясно +17.6 +8.8 56 +18 +21 1023.1 970.2
06 17.09 ЮВ 2 20 км ясно +24.2 +4.6 28 +24 +35 комфорт 1022.0 970.2 +12.3
09 17.09 штиль 0 20 км 3/3 1000 м
[Cu med, cong]
+25.2 +2.1 22 +24 +33 комфорт 1020.3 968.8
12 17.09 СЗ 1 20 км ясно +24.9 +2.7 24 +24 +25 комфорт 1019.7 968.1
15 17.09 С 1 10 км ясно +14.2 +6.5 60 +15 +15 1022.1 968.6 +26.3
18 17.09 СВ 1 10 км ясно +12.3 +3.8 56 +13 +13 1020.6 966.8 +26.3
21 17.09 штиль 0 10 км ясно +8.4 +4.5 76 +8 +8 1019.7 965.3
00 18.09 штиль 0 10 км ясно +6.7 +4.9 88 +6 +6 1019.4 964.6

 

Местоположение метеостанции Толе Би (Жамбылская область, Казахстан): широта 43.70 долгота 73.78 высота над уровнем моря 456 м.

В архиве по умолчанию представлена погода в Толе Би за последнюю неделю. Архивные данные за месяц целиком и за предыдущие месяцы, начиная с января 2011 года, Вы можете получить, выбрав интересующий диапазон дат из раскрывающегося списка и нажав кнопку "Ввод!".


*Определитесь, кто Вы:
робот инопланетянин человек

Внимание! Время в таблицах - всемирное. Для получения местного времени необходимо прибавить поправку, которая равна 6 ч.

Смотрите также архив погоды в соседних городах и на ближайших метеорологических станциях:

Погода в Шокпаре (Жамбылская область, Казахстан) (50 км)
Погода в Хантау (Жамбылская область, Казахстан) (59 км)
Погода в Бериктасе (Жамбылская область, Казахстан) (68 км)
Погода в Яны-Жере (Чуйская область, Киргизия) (80 км)
Погода в Мойынкуме (Южно-Казахстанская область, Казахстан) (93 км)
Погода в Кара-Балте (Чуйская область, Киргизия) (100 км)
Погода в Кордае (Жамбылская область, Казахстан) (104 км)
Погода в Мерке (Жамбылская область, Казахстан) (106 км)
Погода в Анархае (Жамбылская область, Казахстан) (109 км)
Погода в Бишкеке (город Бишкек, Киргизия) (112 км)

Пояснения к столбцам:

Ветер - указаны скорость ветра в м/с - средняя за 10 мин, порывы в срок и между сроками (в фигурных скобках) и направление, откуда дует ветер: С - северный, СВ - северо-восточный, В - восточный, ЮВ - юго-восточный, Ю - южный, ЮЗ - юго-западный, З - западный, СЗ - северо-западный.
Видимость - горизонтальная дальность видимости в метрах или километрах. При видимости от 1 до 10 км при отсутствии осадков обычно наблюдается дымка, при ухудшении видимости до 1 км и менее - туман. В сухую погоду видимость может ухудшаться дымом, пылью или мглою.
Явления - указаны атмосферные явления, наблюдавшиеся в срок или в последний час перед сроком; фигурными скобками обозначены явления, наблюдавшиеся между сроками (за 1-3 часа до срока); квадратными скобками обозначены град или гололедные отложения с указанием их диаметра в мм.
Облачность - указаны через наклонную черту общая и нижняя облачность в баллах и высота нижней границы облаков в метрах; квадратными скобками обозначены формы облаков: Ci - перистые, Cs - перисто-слоистые, Cc - перисто-кучевые, Ac - высококучевые, As - высокослоистые, Sc - слоисто-кучевые, Ns - слоисто-дождевые, Cu - кучевые, Cb - кучево-дождевые. Подробнее классификацию облаков см. в Атласе облаков (PDF).
T - Температура воздуха - температура, измеренная на высоте 2 м над землей.
Td - Температура точки росы - температура, при понижении до которой содержащийся в воздухе водяной пар достигнет насыщения.
f - Относительная влажность воздуха - влажноcть воздуха, измеренная на высоте 2 м над землей.
Te - Эффективная температура - температура, которую ощущает одетый по сезону человек в тени. Характеристика душности погоды. При расчете учитывается влияние влажности воздуха и скорости ветра на теплоощущения человека.
Tes - Эффективная температура на солнце - температура, которую ощущает человек, с поправкой на солнечный нагрев. Характеристика знойности погоды. Зависит от высоты солнца над горизонтом, облачности и скорости ветра. Ночью, в пасмурную погоду, а также при ветре 12 м/с и более поправка равна нулю.
P - Атмосферное давление - приведенное к уровню моря атмосферное давление.
Po - Атмосферное давление - измеренное на уровне метеостанции атмосферное давление.
Tmin - Минимальная температура - минимум температуры воздуха на высоте 2 м над землей.
Tmax - Максимальная температура - максимум температуры воздуха на высоте 2 м над землей.
R - Количество осадков - Количество выпавших осадков за период времени, мм. При наведении курсора мыши на число - период времени, за который выпало указанное количество осадков.
R24 - Количество осадков - Количество выпавших осадков за 24 часа, мм.
S - Снежный покров - Высота снежного покрова, см. При наведении курсора мыши на число - состояние снежного покрова и степень покрытия местности в баллах.